EHI
0 0 0 0 0 0 0 0 0 0 0 0 0 0 0 1 2 3 2 2 2 2 3 3 3 3 3 4 3 2 1 0 0 0 0 0 0 0 0 0 0 0 0 0
0 0 0 0 0 0 0 0 0 0 0 0 0 0 0 0 1 2 1 1 1 1 3 3 3 3 4 4 4 2 0 0 0 0 0 0 0 0 0 0 0 0 0 0
0 0 0 0 0 0 0 0 0 0 0 0 0 0 0 0 0 0 0 0 0 1 2 2 2 3 4 5 4 2 0 0 0 0 0 0 0 0 0 0 0 0 0 0
0 0 0 0 0 0 0 0 0 0 0 0 0 0 0 0 0 0 0 0 0 0 1 1 1 2 3 4 3 1 0 0 0 0 0 0 0 0 0 0 0 0 0 0
0 0 0 0 0 0 0 0 0 0 0 0 0 0 0 0 0 0 0 0 0 0 0 0 0 1 3 3 1 0 0 0 0 0 0 0 0 0 0 0 0 0 0 0
0 0 0 0 0 0 0 0 0 0 0 0 0 0 0 0 0 0 0 0 0 0 0 0 1 2 3 2 1 0 0 0 0 0 0 0 0 0 0 0 0 0 0 0
0 0 0 0 0 0 0 0 0 0 0 0 0 0 0 0 0 0 0 0 0 0 0 0 1 2 3 2 1 0 0 0 0 0 0 0 0 0 0 0 0 0 0 0
0 0 0 0 0 0 0 0 0 0 0 0 0 0 0 0 0 0 0 0 0 0 0 0 0 1 2 2 1 0 0 0 0 0 0 0 0 0 0 0 0 0 0 0
0 0 0 0 0 0 0 0 0 0 0 0 0 0 0 0 0 0 0 0 0 0 0 0 0 0 1 1 0 0 0 0 0 0 0 0 0 0 0 0 0 0 0 0
0 0 0 0 0 0 0 0 0 0 0 0 0 0 0 0 0 0 0 0 0 0 0 0 0 0 0 0 0 0 0 0 0 0 0 0 0 0 0 0 0 0 0 0
0 0 0 0 0 0 0 0 0 0 0 0 0 0 0 0 0 0 0 0 0 0 0 0 0 0 0 0 0 0 0 0 0 0 0 0 0 0 0 0 0 0 0 0
0 0 0 0 0 0 0 0 0 0 0 0 0 0 0 0 0 0 0 0 0 0 0 0 0 0 0 0 0 0 0 0 0 0 0 0 0 0 0 0 0 0 0 0
0 0 0 0 0 0 0 0 0 0 0 0 0 0 0 0 0 0 0 0 0 0 0 0 0 0 0 0 0 0 0 0 0 0 0 0 0 0 0 0 0 0 0 0
0 0 0 0 0 0 0 0 0 0 0 0 0 0 0 0 0 0 0 0 0 0 0 0 0 0 0 0 0 0 0 0 0 0 0 0 0 0 0 0 0 0 0 0
0 0 0 0 0 0 0 0 0 0 0 0 0 0 0 0 0 0 0 0 0 0 0 0 0 0 0 0 0 0 0 0 0 0 0 0 0 0 0 0 0 0 0 0
0 0 0 0 0 0 0 0 0 0 0 0 0 0 0 0 0 0 0 0 0 0 0 0 0 0 0 0 0 0 0 0 0 0 0 0 0 0 0 0 0 0 0 0
0 0 0 0 0 0 0 0 0 0 0 0 0 0 0 0 0 0 0 0 0 0 0 0 0 0 0 0 0 0 0 0 0 0 0 0 0 0 0 0 0 0 0 0
0 0 0 0 0 0 0 0 0 0 0 0 0 0 0 0 0 0 0 0 0 0 0 0 0 0 0 0 0 0 0 0 0 0 0 0 0 0 0 0 0 0 0 0
0 0 0 0 0 0 0 0 0 0 0 0 0 0 0 0 0 0 0 0 0 0 0 0 0 0 0 0 0 0 0 0 0 0 0 0 0 0 0 0 0 0 0 0
0 0 0 0 0 0 0 0 0 0 0 0 0 0 0 0 0 0 0 0 0 0 0 0 0 0 0 0 0 0 0 0 0 0 0 0 0 0 0 0 0 0 0 0
0 0 0 0 0 0 0 0 0 0 0 0 0 0 0 0 0 0 0 0 0 0 0 0 0 0 0 0 0 0 0 0 0 0 0 0 0 0 0 0 0 0 0 0
0 0 0 0 0 0 0 0 0 0 0 0 0 0 0 0 0 0 0 0 0 0 0 0 0 0 0 0 0 0 0 0 0 0 0 0 0 0 0 0 0 0 0 0
0 0 0 0 0 0 0 0 0 0 0 0 0 0 0 0 0 0 0 0 0 0 0 0 0 0 0 0 0 0 0 0 0 0 0 0 0 0 0 0 0 0 0 0
0 0 0 0 0 0 0 0 0 0 0 0 0 0 0 0 0 0 0 0 0 0 0 0 0 0 0 0 0 0 0 0 0 0 0 0 0 0 0 0 0 0 0 0
0 0 0 0 0 0 0 0 0 0 0 0 0 0 0 0 0 0 0 0 0 0 0 0 0 0 0 0 0 0 0 0 0 0 0 0 0 0 0 0 0 0 0 0
0 0 0 0 0 0 0 0 0 0 0 0 0 0 0 0 0 0 0 0 0 0 0 0 0 0 0 0 0 0 0 0 0 0 0 0 0 0 0 0 0 0 0 0
0 0 0 0 0 0 0 0 0 0 0 0 0 0 0 0 0 0 0 0 0 0 0 0 0 0 0 0 0 0 0 0 0 0 0 0 0 0 0 0 0 0 0 0
Wind_Speed
6 7 5 6 6 4 4 6 6 7 7 9 6 5 4 3 3 3 3 3 3 3 3 3 2 2 2 2 1 1 1 1 1 1 1 1 2 2 2 2 2 2 2 3
5 5 4 5 7 5 5 5 5 5 8 6 3 2 2 3 4 4 4 4 4 4 4 4 3 3 2 2 1 1 1 1 1 1 1 1 2 2 2 2 2 2 2 3
4 5 4 5 5 4 3 3 4 5 6 2 1 2 4 4 4 5 5 4 4 4 4 4 4 3 3 2 1 1 1 1 1 1 1 2 1 1 1 1 2 2 3 2
2 3 4 7 3 2 2 3 2 3 3 2 3 3 2 3 5 5 4 4 4 4 4 3 3 2 2 2 2 1 0 1 1 1 1 1 1 1 2 1 1 2 3 3
1 2 6 6 3 1 2 4 2 2 3 3 2 3 2 1 3 4 4 4 3 3 4 3 3 3 3 2 1 1 1 1 1 1 1 1 1 2 1 1 2 2 2 2
1 2 4 5 6 4 1 4 3 2 2 1 2 1 4 2 1 2 2 2 2 3 3 3 3 4 3 2 1 1 2 2 1 1 1 1 2 2 1 1 2 2 3 3
2 4 6 5 5 3 2 6 5 2 1 1 2 4 3 0 2 2 2 2 3 3 3 2 3 4 3 2 2 3 2 1 1 1 1 1 1 1 1 1 2 2 3 4
1 3 6 4 3 0 5 4 2 2 2 2 2 1 0 1 2 3 3 2 3 3 2 1 3 4 3 2 3 1 1 0 1 1 1 1 1 2 1 1 2 3 3 4
5 7 6 4 5 5 3 3 3 3 2 2 1 1 1 2 2 2 2 2 2 3 2 1 2 4 3 3 1 1 1 0 1 2 1 1 1 2 2 1 1 3 3 3
5 8 8 8 6 5 3 3 4 3 3 3 3 2 2 2 2 2 2 2 2 2 2 1 1 2 2 2 2 2 1 1 1 1 2 2 1 1 1 2 2 2 3 3
7 9 8 6 5 5 5 3 2 2 2 3 3 2 3 3 3 3 2 2 2 3 3 3 2 1 1 2 2 2 1 0 1 1 1 2 2 2 2 3 4 4 4 4
8 8 6 9 7 5 4 3 1 1 1 1 2 3 3 3 3 3 2 2 2 2 2 2 2 2 1 2 2 2 1 0 1 1 1 1 2 4 4 4 6 7 8 7
8 8 7 8 7 4 3 3 3 2 3 3 2 2 3 3 3 3 3 3 3 3 3 3 2 2 2 2 2 3 2 2 1 1 1 1 2 2 5 6 6 5 6 7
6 5 6 6 5 4 3 3 2 2 2 3 2 2 2 2 3 4 4 4 3 2 2 3 3 3 3 2 3 3 2 3 2 2 2 2 2 2 3 3 5 6 6 7
8 6 7 6 5 4 2 1 1 1 1 1 2 3 3 4 4 4 4 3 2 2 2 3 3 3 2 2 3 3 2 2 2 2 2 2 2 2 3 3 4 5 5 6
5 4 4 4 4 4 3 2 3 4 3 3 3 4 4 4 3 3 2 3 3 3 4 3 4 4 2 3 3 2 2 3 2 1 2 2 2 3 3 4 4 4 5 5
3 4 3 4 5 5 5 5 5 5 4 4 5 4 3 3 3 2 3 3 4 4 4 4 4 3 2 3 3 2 2 2 2 1 2 2 3 3 3 4 4 5 5 5
7 7 7 7 6 6 5 5 5 5 5 5 4 4 4 5 5 5 4 3 2 2 3 4 4 3 2 3 3 2 2 2 1 1 2 2 3 3 3 4 5 6 6 6
5 6 6 6 6 5 6 6 6 5 5 4 5 5 5 5 5 5 3 3 3 4 4 3 3 3 2 3 3 2 2 2 1 2 2 3 3 3 4 4 5 5 5 5
4 5 5 4 4 4 5 5 5 4 4 4 4 4 4 5 5 4 4 4 5 5 4 4 3 3 3 2 3 2 2 2 2 2 2 2 3 4 4 5 5 5 5 5
4 4 4 4 4 4 5 5 5 5 4 5 5 6 6 5 4 4 4 4 5 4 4 4 3 3 3 2 3 2 2 2 2 2 2 3 4 4 4 5 5 4 4 4
4 4 4 4 4 4 4 4 5 5 5 5 5 5 5 4 4 4 5 5 4 4 3 3 3 4 4 3 2 2 2 2 2 2 3 3 3 4 4 4 4 4 4 4
4 4 4 4 4 4 3 3 5 5 6 6 6 5 5 5 5 5 4 4 3 5 4 3 4 5 5 3 2 2 2 3 3 3 3 3 3 3 4 4 4 4 4 5
4 4 4 3 2 2 3 4 4 4 5 5 6 6 5 4 3 4 4 4 5 6 4 4 6 6 5 2 2 2 2 2 2 3 3 3 3 3 3 4 4 4 4 5
4 4 3 2 3 3 4 3 2 2 3 3 4 4 4 4 4 4 4 4 6 6 3 4 6 6 4 3 2 2 2 2 2 2 3 3 3 3 3 4 4 3 3 3
4 3 3 4 4 3 3 3 3 3 3 2 2 2 2 3 3 3 3 4 5 5 4 3 3 3 3 3 3 3 2 2 3 3 3 3 3 3 3 3 4 3 3 3
3 2 2 2 1 2 3 3 3 4 4 4 3 2 3 3 3 3 4 4 4 3 3 3 3 3 3 3 3 2 2 2 2 2 2 2 2 2 2 3 2 2 2 2
Wind_Direction
257 267 269 271 277 265 225 211 216 249 249 265 255 235 222 209 175 159 166 169 176 184 188 185 192 201 193 200 213 192 197 245 260 274 300 314 315 321 328 329 316 311 315 312
293 286 284 283 281 264 251 236 234 255 266 269 256 207 200 194 182 187 191 189 193 192 188 191 197 196 190 198 206 178 210 249 262 278 318 317 312 327 342 337 331 333 317 312
283 299 333 290 267 248 235 228 208 235 256 284 293 235 214 206 200 202 202 198 196 196 192 197 197 185 185 192 168 151 226 258 278 303 317 310 313 339 331 326 335 333 323 324
285 344 257 251 280 271 257 282 285 284 291 256 238 247 234 201 202 215 204 201 204 194 190 192 182 170 168 154 146 151 202 270 296 306 309 322 339 331 322 326 328 320 317 321
163 268 281 301 322 302 248 284 344 338 344 353 38 29 332 244 202 210 205 194 195 188 178 173 170 164 149 141 129 142 226 258 264 247 274 315 321 310 316 336 326 318 316 325
168 246 261 275 306 311 78 299 339 7 355 0 54 8 281 267 198 201 193 167 158 148 140 156 166 152 146 148 151 207 240 252 258 248 252 278 281 290 310 310 305 319 327 316
216 243 265 281 318 20 49 282 312 320 285 207 218 235 268 209 138 150 146 140 136 137 148 173 158 146 150 165 206 227 236 247 275 284 276 269 298 303 302 316 329 329 321 315
197 238 262 330 14 52 253 285 293 272 248 229 273 293 215 147 133 132 118 111 127 138 149 153 147 147 159 202 224 208 163 220 301 314 310 319 315 311 316 334 334 323 321 320
212 234 261 297 276 276 260 283 279 248 264 216 243 277 203 179 165 152 143 137 128 142 139 127 156 158 177 220 194 139 118 274 306 322 327 324 299 300 315 323 309 306 309 308
271 275 286 289 289 293 276 272 270 251 234 208 210 226 200 178 177 173 163 157 134 133 147 178 191 172 189 202 157 139 156 293 316 331 328 337 325 290 288 291 290 293 296 297
271 284 304 299 299 304 312 313 302 293 245 206 180 193 197 190 195 195 180 170 152 160 183 202 193 192 193 170 155 164 184 272 322 332 320 328 324 295 274 264 242 248 265 266
255 261 260 277 289 299 303 305 285 248 260 240 196 192 197 197 200 193 186 174 162 177 195 198 187 210 215 176 165 161 170 254 275 298 312 317 321 321 301 268 277 260 248 249
252 270 266 274 286 291 274 273 271 235 203 219 238 201 189 195 196 183 180 184 190 198 203 194 192 216 229 193 168 170 195 222 242 265 280 294 300 308 317 322 318 300 282 272
259 269 280 278 275 279 271 265 259 254 229 202 197 186 178 182 183 186 196 203 201 199 204 194 194 228 236 191 174 187 204 223 224 244 259 271 278 284 287 301 316 320 316 305
259 250 251 266 274 278 276 241 218 236 214 216 182 179 181 189 201 207 205 193 181 193 209 198 206 240 231 175 178 194 206 227 230 243 258 268 280 289 290 288 288 296 308 315
284 286 264 257 256 257 255 221 212 223 215 213 204 201 198 193 199 200 194 177 176 204 214 205 221 239 213 182 186 203 224 237 234 244 273 288 292 295 299 301 303 306 306 306
262 272 269 262 254 246 236 224 212 213 213 211 212 201 182 175 184 200 211 201 198 209 209 208 225 234 202 184 187 210 227 248 252 255 270 278 289 297 301 304 306 306 302 302
242 239 231 228 232 237 235 227 216 212 214 221 200 182 182 189 200 212 217 203 200 227 233 222 219 215 205 196 196 205 211 232 243 260 280 291 297 299 301 302 304 305 307 311
273 261 248 237 232 226 222 219 215 214 215 195 187 196 202 206 205 207 199 188 200 224 240 226 206 197 208 212 195 191 200 215 240 263 277 300 308 306 304 304 305 305 303 307
281 278 262 247 239 225 220 217 205 207 207 186 187 198 208 214 204 195 189 208 218 216 214 205 198 202 212 209 184 181 195 215 240 268 284 291 295 299 302 303 303 304 306 307
292 288 277 257 244 231 217 204 193 201 202 188 191 202 211 215 200 185 186 225 244 217 200 199 196 203 205 190 174 176 195 212 229 246 264 277 287 294 299 301 305 307 309 312
289 276 267 256 239 235 227 204 197 195 190 197 203 203 204 211 202 198 212 219 226 201 188 193 198 201 194 181 177 188 206 221 237 251 263 273 282 292 300 307 310 311 313 314
285 273 260 249 232 228 223 206 195 187 190 200 203 202 205 209 197 193 225 229 205 190 183 193 195 189 186 178 184 201 216 228 245 259 270 276 280 285 296 304 309 312 316 319
290 282 268 257 215 189 207 220 201 196 198 206 211 207 199 199 211 215 211 202 189 180 186 193 188 189 185 180 190 210 228 240 251 263 274 283 290 296 299 302 307 313 317 321
287 285 274 220 199 210 219 213 197 199 198 211 218 211 202 195 196 201 189 184 178 175 184 192 190 189 185 185 197 216 234 246 252 259 269 280 290 295 298 303 307 312 319 325
283 267 249 227 217 208 199 186 193 197 188 197 215 208 195 182 176 171 168 170 171 175 182 188 186 181 178 184 194 210 231 252 259 260 266 277 289 294 299 304 309 316 323 325
281 273 267 259 251 201 187 187 196 203 194 188 200 209 187 173 167 166 166 167 170 177 183 183 176 172 175 186 202 220 237 250 258 263 272 281 287 289 296 301 306 312 319 324